This demonstration page uses our WeatherBlox Daily Observations layout. Learn more.

39.29038, -76.61219

Hourly Observations for August 27, 2019

Temp ( °F °C ) Dew Point ( °F °C ) Humidity (%) Winds ( mph kmh ) Pressure ( in mb ) Visibility ( mi km ) Precip ( " mm )
12:54 am 00:54 undefined 69 20.6 58 14.4 68 68 undefined N/A 30.12 1020 N/A 0 0
1:54 am 01:54 undefined 68 20 59 15 73 73 undefined N/A 30.11 1020 N/A 0 0
2:54 am 02:54 undefined 68 20 60 15.6 76 76 undefined N/A 30.09 1019 N/A 0 0
3:54 am 03:54 undefined 68 20 61 16.1 78 78 undefined N/A 30.07 1018 N/A 0 0
4:54 am 04:54 undefined 67 19.4 60 15.6 79 79 undefined N/A 30.06 1018 N/A 0 0
5:54 am 05:54 undefined 68 20 61 16.1 78 78 undefined N/A 30.06 1018 N/A 0 0
6:54 am 06:54 undefined 68 20 61 16.1 78 78 undefined N/A 30.07 1018 N/A 0 0
7:54 am 07:54 undefined 68 20 61 16.1 78 78 undefined N/A 30.08 1019 N/A 0 0
8:54 am 08:54 undefined 69 20.6 61 16.1 76 76 undefined N/A 30.09 1019 N/A 0 0
9:54 am 09:54 undefined 70 21.1 62 16.7 76 76 undefined N/A 30.08 1019 N/A 0 0
10:54 am 10:54 undefined 72 22.2 63 17.2 73 73 undefined N/A 30.06 1018 N/A 0 0
11:54 am 11:54 undefined 72 22.2 63 17.2 73 73 undefined N/A 30.06 1018 N/A 0 0
12:54 pm 12:54 undefined 75 23.9 65 18.3 71 71 undefined N/A 30.04 1017 N/A 0 0
1:54 pm 13:54 undefined 76 24.4 64 17.8 67 67 undefined N/A 30.02 1017 N/A 0 0
2:54 pm 14:54 undefined 79 26.1 66 18.9 65 65 undefined N/A 30.01 1016 N/A 0 0
3:54 pm 15:54 undefined 79 26.1 62 16.7 56 56 undefined N/A 29.99 1016 N/A 0 0
4:54 pm 16:54 undefined 79 26.1 63 17.2 58 58 undefined N/A 29.98 1015 N/A 0 0
5:54 pm 17:54 undefined 76 24.4 62 16.7 62 62 undefined N/A 29.97 1015 N/A 0 0
6:54 pm 18:54 undefined 76 24.4 63 17.2 64 64 undefined N/A 29.97 1015 N/A 0 0
7:54 pm 19:54 undefined 74 23.3 64 17.8 71 71 undefined N/A 29.97 1015 N/A 0 0
8:54 pm 20:54 undefined 74 23.3 64 17.8 71 71 undefined N/A 29.99 1016 N/A 0 0
9:54 pm 21:54 undefined 74 23.3 64 17.8 71 71 undefined N/A 29.99 1016 N/A 0 0
10:54 pm 22:54 undefined 73 22.8 66 18.9 79 79 undefined N/A 29.99 1016 N/A 0 0
11:54 pm 23:54 undefined 73 22.8 67 19.4 81 81 undefined N/A 29.98 1015 N/A 0 0

Powered by AerisWeather